Showing default

COSMOS 87, 1585

Orbit data source: Space-Track

COSMOS 87, 1585 is a payload satellite owned by OKB-10 (CIS) in LEO that was launched on Sat, 18 Sep 1965 UTC via a KOSMOS 65S3 launch vehicle from the Tyuratam Missile And Space Complex (TTMTR). Payloads include a variety of satellites, spacecraft, and rockets equipped with specific instruments for various scientific and technological missions. These include communications satellites like Starlink; space stations such as the ISS; scientific satellites like the Hubble; Earth observation satellites from companies like Planet Labs, Umbra, and HawkEye 360; GPS; miniature CubeSats for education and research; and military/defense satellites.

Loading next visibility...
COSMOS 87 details
Identifier
1585, 1965-073B
Orbit
LEO
Last TLE update10 hours ago
Origin
Flag of CISOKB-10 (CIS)
ManufacturerOKB-10
MissionDefense Communications
Bus & MotorSTRELA-1 11F610, Unknown motor
Mass50 kg wet, 50 kg dry
Launch date (UTC)
1965-09-18 (59 years ago)
Launch vehicle
KOSMOS 65S3
Launch site
Tyuratam Missile And Space Complex (TTMTR)
Object type
Payload
Rocket body
Debris
Shape & HBRPoly, 0.8 m
Radar Cross Section0.731 m², Medium (>0.1 m² and < 1m²)

Expand to show TLE details & history

TLE from 10 hours ago
0 COSMOS 87
1  1585U 65073B   24356.26221250 -.00000067  00000-0  17765-3 0  9993
2  1585  56.0626 302.9573 0204424  19.0667 124.3340 12.47453035698611
Epoch: 2024-12-21T06:17Z
Definitive object data (Epoch: 2024-12-21T06:17:35.159Z)
Latitude28.24662°
Longitude-82.84129°
Altitude1,569.586 km
Speed7.044 km/s
True Right ascension06h 47m 29s
True Declination28° 07' 05"
Sunlit
Object was in full shadow at TLE epoch
Visualization TLE readout
Latitude-27.69711°
Longitude-42.29206°
Altitude1,639.104 km
Speed6.982 km/s
Apparent Right ascension07h 08m 09s
Apparent Declination-42° 37' 35"
Sunlit
Object is in daylight
Visualization observer readout
Local Sidereal Time15:19:47
Azimuth246.945° WSW
Elevation-47.83°
Doppler factor1
Orbital elements
Apogee altitude1,635.526 km
Perigee altitude1,314.452 km
Semi-major axis7,853.126 km
Eccentricity0.0204424
Inclination56.0626°
RAAN302.9573°
Arg. of periapsis19.0667°
True anomaly126.24052°
Mean anomaly124.334°
Eccentric anomaly125.29003°
Mean motion3.11874 °/min
BSTAR0.00017765
Orbital period115.43 mins
Loading maneuver chart data...
Loading historical data...
Loading historical data...
Loading historical data...
Loading historical data...
Loading historical data...
Loading historical data...
Loading historical data...

COSMOS 87 Visibility forecast

Observer location: undefined°, undefined

Span
Click to sort rows by Start time (UTC) header in descending order
Start Az.
Max El. time (UTC)
Max El. Az.
Max El.
End time (UTC)
End Az.
8 mins2024-12-21 21:02:21.381Z146.287° SSE2024-12-21 21:06:21.381Z113.636° SE16.799°2024-12-21 21:10:21.381Z81.573° E
14 mins2024-12-21 22:59:21.381Z216.851° SW2024-12-21 23:05:21.381Z156.736° SSE44.558°2024-12-21 23:13:21.381Z47.206° ENE
13 mins2024-12-22 01:01:21.381Z277.894° WNW2024-12-22 01:07:21.381Z342.19° N31.119°2024-12-22 01:14:21.381Z40.314° NE
12 mins2024-12-22 03:04:21.381Z314.484° NW2024-12-22 03:10:21.381Z7.349° NNE24.534°2024-12-22 03:16:21.381Z55.015° ENE
15 mins2024-12-22 05:06:21.381Z324.42° NNW2024-12-22 05:13:21.381Z37.94° NE35.468°2024-12-22 05:21:21.381Z101.041° ESE
17 mins2024-12-22 07:06:21.381Z308.899° NW2024-12-22 07:14:21.381Z220.178° SW42.35°2024-12-22 07:23:21.381Z152.102° SSE
7 mins2024-12-22 09:10:21.381Z268.456° W2024-12-22 09:13:21.381Z247.797° W14.403°2024-12-22 09:17:21.381Z221.425° SW
|